Weather in Pokrovka

Russia / Primorsky Krai     43°57′03″N   131°38′07″E
temp.,
°C
wind,
m/s
gust,
m/s
humid.,
%
clouds,
%
prec.,
mm/h
press.,
hPa
HPBL,
m
24 july, sat
sat2401:00+24sse3788100 0.0 1008146
04:00+23sse2493100 0.0 100890
07:00+24sse3485100 0.0 1009130
10:00+31s2352100 0.0 1009613
13:00+38sse223328 0.0 10071875
16:00+38sse852951 0.0 10062103
19:00+32sse8104398 0.0 1006588
22:00+24sse510807 0.0 1008245
25 july, sun
sun2501:00+22sse5109477 0.0 1008265
04:00+21sse489717 0.0 1008248
07:00+22s499591 0.0 1009320
10:00+30s685178 0.0 1008833
13:00+36s873295 0.0 10061601
16:00+35s9835100 0.0 10051373
19:00+31sse894888 0.0 1006818
22:00+24sse71384100 0.0 1007414
26 july, mon
mon2601:00+23s5109518 0.0 1007330
04:00+22s499782 0.0 1007331
07:00+23s499060 0.0 1007453
10:00+29s675778 0.0 10061006
13:00+35s7636100 0.0 10041635
16:00+36sse87365 0.0 10031747
19:00+30sse8955100 0.0 1003714
22:00+24sse51082100 0.0 1005309
27 july, tue
tue2701:00+23sse4892100 0.0 1004240
04:00+22sse2597100 0.0 1004149
07:00+23s239153 0.0 1005120
10:00+30s115523 0.0 1005628
13:00+37nne23345 0.0 10021679
16:00+41n122454 0.0 9993411
19:00+37ne562995 0.0 999631
22:00+31sse224075 0.0 100028
28 july, wed
wed2801:00+26sse016212 0.0 100114
04:00+25nnw116656 0.0 100111
07:00+27e01555 0.0 100251
10:00+34nne23385 0.0 1001894
13:00+40n22264 0.0 9992526
16:00+39nw322886 0.0 9972001
19:00+31wsw7115196 0.0 999569
22:00+25ssw477814 0.3 1000139